N752OC KCPU-KTVL

Flight info

Callsign N752OC
Flight time 0h 22m
Altitude 11000
Route KATSO
Aircraft BE58/L-VGDW/C

Departure

Time 2026-05-08 08:04
Airport Calaveras Co Maury Rasmussen Field (KCPU)

Arrival

Time 2026-05-08 08:27
Airport Lake Tahoe Airport (KTVL)
Time Latitude Longitude Altitude Speed Heading
2026-05-08 07:51 38.14629 -120.64706 1289 ft 0 kts 237°
2026-05-08 07:59 38.14626 -120.64711 1296 ft 2 kts 254°
2026-05-08 07:59 38.14652 -120.64745 1297 ft 8 kts 326°
2026-05-08 08:00 38.14673 -120.64762 1297 ft 0 kts 326°
2026-05-08 08:00 38.14675 -120.64767 1297 ft 3 kts 294°
2026-05-08 08:00 38.14708 -120.64807 1298 ft 10 kts 326°
2026-05-08 08:00 38.14781 -120.64871 1297 ft 13 kts 325°
2026-05-08 08:01 38.14846 -120.64925 1295 ft 11 kts 326°
2026-05-08 08:01 38.14863 -120.64965 1296 ft 3 kts 282°
2026-05-08 08:01 38.14918 -120.65017 1293 ft 17 kts 325°
2026-05-08 08:01 38.15006 -120.65092 1291 ft 5 kts 327°
2026-05-08 08:02 38.15012 -120.65099 1291 ft 1 kts 299°
2026-05-08 08:02 38.15017 -120.65145 1291 ft 5 kts 261°
2026-05-08 08:02 38.14987 -120.65140 1291 ft 0 kts 147°
2026-05-08 08:02 38.14969 -120.65125 1291 ft 0 kts 147°
2026-05-08 08:03 38.14968 -120.65124 1291 ft 4 kts 148°
2026-05-08 08:03 38.14729 -120.64921 1299 ft 77 kts 146°
2026-05-08 08:03 38.14170 -120.64435 1405 ft 108 kts 143°
2026-05-08 08:04 38.13503 -120.63838 1658 ft 120 kts 141°
2026-05-08 08:04 38.13156 -120.62929 1996 ft 125 kts 86°
2026-05-08 08:04 38.13514 -120.62026 2409 ft 120 kts 32°
2026-05-08 08:04 38.14368 -120.61880 2635 ft 129 kts 337°
2026-05-08 08:05 38.15068 -120.62411 3208 ft 110 kts 324°
2026-05-08 08:05 38.15749 -120.63010 3367 ft 130 kts 327°
2026-05-08 08:05 38.16526 -120.63560 3802 ft 121 kts 331°
2026-05-08 08:05 38.17239 -120.64011 4261 ft 112 kts 337°
2026-05-08 08:06 38.17987 -120.64284 4618 ft 113 kts 347°
2026-05-08 08:06 38.18768 -120.64421 4968 ft 115 kts 353°
2026-05-08 08:06 38.19574 -120.64483 5331 ft 117 kts 356°
2026-05-08 08:06 38.20385 -120.64498 5689 ft 119 kts 358°
2026-05-08 08:07 38.21217 -120.64487 6055 ft 120 kts 358°
2026-05-08 08:07 38.22046 -120.64464 6387 ft 122 kts 358°
2026-05-08 08:07 38.22899 -120.64431 6731 ft 121 kts 359°
2026-05-08 08:07 38.23739 -120.64396 7055 ft 121 kts 359°
2026-05-08 08:08 38.24583 -120.64358 7335 ft 123 kts 359°
2026-05-08 08:08 38.25438 -120.64318 7648 ft 122 kts 359°
2026-05-08 08:08 38.26279 -120.64279 7931 ft 123 kts 359°
2026-05-08 08:08 38.27139 -120.64239 8197 ft 125 kts 359°
2026-05-08 08:09 38.28012 -120.64198 8435 ft 128 kts 359°
2026-05-08 08:09 38.28901 -120.64156 8676 ft 129 kts 359°
2026-05-08 08:09 38.29795 -120.64114 8918 ft 129 kts 359°
2026-05-08 08:09 38.30688 -120.64072 9157 ft 128 kts 359°
2026-05-08 08:10 38.31585 -120.64030 9377 ft 128 kts 359°
2026-05-08 08:10 38.32468 -120.63988 9597 ft 126 kts 359°
2026-05-08 08:10 38.33333 -120.63947 9814 ft 124 kts 359°
2026-05-08 08:10 38.34198 -120.63907 10029 ft 123 kts 359°
2026-05-08 08:11 38.35040 -120.63776 10226 ft 124 kts 21°
2026-05-08 08:11 38.35766 -120.63135 10408 ft 127 kts 38°
2026-05-08 08:11 38.36415 -120.62399 10624 ft 126 kts 40°
2026-05-08 08:11 38.37084 -120.61626 10776 ft 131 kts 40°
2026-05-08 08:12 38.37760 -120.60837 10917 ft 134 kts 41°
2026-05-08 08:12 38.38492 -120.59981 10924 ft 150 kts 41°
2026-05-08 08:12 38.39285 -120.59049 10922 ft 162 kts 41°
2026-05-08 08:12 38.40142 -120.58041 10924 ft 173 kts 41°
2026-05-08 08:13 38.41058 -120.56962 10925 ft 183 kts 41°
2026-05-08 08:13 38.42004 -120.55846 10924 ft 189 kts 41°
2026-05-08 08:13 38.42967 -120.54713 10928 ft 190 kts 41°
2026-05-08 08:13 38.43944 -120.53561 10934 ft 190 kts 41°
2026-05-08 08:14 38.44904 -120.52430 10938 ft 189 kts 41°
2026-05-08 08:14 38.45873 -120.51288 10935 ft 188 kts 41°
2026-05-08 08:14 38.46822 -120.50170 10939 ft 186 kts 41°
2026-05-08 08:14 38.47773 -120.49048 10947 ft 184 kts 41°
2026-05-08 08:15 38.48708 -120.47945 10958 ft 186 kts 41°
2026-05-08 08:15 38.49679 -120.46799 10965 ft 190 kts 41°
2026-05-08 08:15 38.50646 -120.45657 10967 ft 190 kts 42°
2026-05-08 08:15 38.51615 -120.44512 10973 ft 187 kts 41°
2026-05-08 08:16 38.52559 -120.43397 10983 ft 185 kts 41°
2026-05-08 08:16 38.53512 -120.42271 10994 ft 186 kts 41°
2026-05-08 08:16 38.54462 -120.41146 10999 ft 189 kts 42°
2026-05-08 08:16 38.55438 -120.39992 11001 ft 191 kts 42°
2026-05-08 08:17 38.56407 -120.38844 11003 ft 191 kts 42°
2026-05-08 08:17 38.57387 -120.37684 11022 ft 190 kts 42°
2026-05-08 08:17 38.58355 -120.36537 11035 ft 192 kts 42°
2026-05-08 08:17 38.59346 -120.35363 11035 ft 194 kts 42°
2026-05-08 08:18 38.60325 -120.34203 11029 ft 190 kts 42°
2026-05-08 08:18 38.61271 -120.33083 11016 ft 185 kts 42°
2026-05-08 08:18 38.62210 -120.31969 11014 ft 182 kts 42°
2026-05-08 08:18 38.63141 -120.30868 11026 ft 185 kts 43°
2026-05-08 08:19 38.64099 -120.29729 11036 ft 188 kts 42°
2026-05-08 08:19 38.65052 -120.28598 11051 ft 188 kts 43°
2026-05-08 08:19 38.66019 -120.27446 11057 ft 190 kts 43°
2026-05-08 08:19 38.66979 -120.26306 11054 ft 189 kts 43°
2026-05-08 08:20 38.67942 -120.25160 11052 ft 186 kts 43°
2026-05-08 08:20 38.68879 -120.24046 11057 ft 184 kts 43°
2026-05-08 08:20 38.69821 -120.22926 11063 ft 183 kts 43°
2026-05-08 08:20 38.70746 -120.21826 11066 ft 183 kts 43°
2026-05-08 08:21 38.71683 -120.20709 11067 ft 183 kts 43°
2026-05-08 08:21 38.72609 -120.19605 11071 ft 183 kts 43°
2026-05-08 08:21 38.73548 -120.18486 11076 ft 183 kts 43°
2026-05-08 08:21 38.74476 -120.17380 11076 ft 184 kts 43°
2026-05-08 08:22 38.75409 -120.16267 11078 ft 183 kts 43°
2026-05-08 08:22 38.76335 -120.15149 10984 ft 185 kts 44°
2026-05-08 08:22 38.77259 -120.13929 10640 ft 192 kts 47°
2026-05-08 08:22 38.78111 -120.12692 10336 ft 184 kts 49°
2026-05-08 08:23 38.78954 -120.11426 9734 ft 190 kts 50°
2026-05-08 08:23 38.79783 -120.10143 9254 ft 186 kts 51°
2026-05-08 08:23 38.80579 -120.08892 8952 ft 172 kts 50°
2026-05-08 08:23 38.81184 -120.07694 8801 ft 148 kts 64°
2026-05-08 08:24 38.81582 -120.06554 8713 ft 135 kts 64°
2026-05-08 08:24 38.81996 -120.05459 8611 ft 136 kts 60°
2026-05-08 08:24 38.82471 -120.04375 8430 ft 145 kts 59°
2026-05-08 08:24 38.82978 -120.03265 8245 ft 135 kts 58°
2026-05-08 08:25 38.83406 -120.02374 8033 ft 108 kts 52°
2026-05-08 08:25 38.83925 -120.01723 7619 ft 105 kts 35°
2026-05-08 08:25 38.84522 -120.01263 7382 ft 98 kts 27°
2026-05-08 08:25 38.85146 -120.00918 7062 ft 101 kts 19°
2026-05-08 08:26 38.85775 -120.00665 6880 ft 91 kts 15°
2026-05-08 08:26 38.86371 -120.00462 6742 ft 87 kts 15°
2026-05-08 08:26 38.86953 -120.00301 6570 ft 83 kts 12°
2026-05-08 08:26 38.87478 -120.00222 6353 ft 51 kts 14°
2026-05-08 08:27 38.87588 -120.00226 6356 ft 0 kts 352°